Location: Marstown
(39.5056°N, 77.0820°W)
Time: 17:16:14
(UTC-05:00)

ISS - Visible Passes

Search period start: 22 November 2017 00:00
Search period end: 02 December 2017 00:00
Orbit: 402 x 407 km, 51.6° (Epoch: 23 November)

Date Brightness Start Highest point End Pass type
(mag) Time Alt. Az. Time Alt. Az. Time Alt. Az.
24 Nov -1.3 18:42:05 10° S 18:42:43 14° S 18:42:43 14° S visible
25 Nov -1.6 17:51:20 10° SSE 17:52:40 12° SE 17:53:00 12° ESE visible
25 Nov -0.4 19:25:28 10° WSW 19:25:41 11° WSW 19:25:41 11° WSW visible
26 Nov -3.2 18:33:12 10° SW 18:35:51 49° S 18:35:51 49° S visible
27 Nov -2.7 17:41:19 10° SSW 17:44:13 29° SE 17:45:56 18° E visible
27 Nov -0.8 19:17:41 10° W 19:18:37 16° W 19:18:37 16° W visible
28 Nov -3.4 18:25:00 10° WSW 18:28:12 53° NW 18:28:36 49° N visible
29 Nov -3.9 17:32:35 10° SW 17:35:51 78° SE 17:38:31 15° NE visible
29 Nov -0.9 19:10:16 10° WNW 19:11:10 14° NW 19:11:10 14° NW visible
30 Nov -2.2 18:17:14 10° W 18:20:05 26° NNW 18:21:00 23° N visible
01 Dec -3.0 17:24:26 10° WSW 17:27:35 43° NNW 17:30:45 10° NE visible
01 Dec -0.8 19:03:08 10° NW 19:03:25 11° NW 19:03:25 11° NW visible
